Weather History for KCLT - June, 2012

Change the Weather History Date:

Wednesday, June 6, 2012

  Actual Average Record
Temperature  
Mean Temperature 65 °F 73 °F  
Max Temperature 73 °F 84 °F 98 °F (1943)
Min Temperature 57 °F 62 °F 48 °F (1976)
Degree Days  
Heating Degree Days 0 0  
Month to date heating degree days 0 0  
Since 1 June heating degree days 0 0  
Since 1 July heating degree days 2597 3385  
Cooling Degree Days 0 8  
Month to date cooling degree days 26 46  
Year to date cooling degree days 355 209  
Since 1 June cooling degree days 26 46  
Growing Degree Days 15 (Base 50)    
Moisture  
Dew Point 56 °F    
Average Humidity 74    
Maximum Humidity 90    
Minimum Humidity 57    
Precipitation  
Precipitation 0.52 in 0.13 in 2.76 in (1916)
Month to date precipitation 0.64 0.78  
Year to date precipitation 15.70 17.74  
Snow  
Snow 0.00 in 0.00 in 0.00 in ()
Month to date snowfall 0.0 0.0  
Since 1 June snowfall 0.0 0.0  
Since 1 July snowfall T 4.3  
Snow Depth 0.00 in    
Sea Level Pressure  
Sea Level Pressure 29.94 in    
Wind  
Wind Speed 7 mph (East)    
Max Wind Speed 17 mph    
Max Gust Speed 23 mph    
Visibility 9 miles    
Events Rain    
T = Trace of Precipitation, MM = Missing Value Source: NWS Daily Summary

Daily Weather History Graph

Daily Weather History Graph

Search for Another Location

Airport or City:

Trip Planner

Search our weather history database for the weather conditions in past years. The results will help you decide how hot, cold, wet, or windy it might be!

Date:

Astronomy

Jun. 06, 2012 Rise Set
Actual Time 6:09 AM EDT 8:36 PM EDT
Civil Twilight 5:39 AM EDT 9:05 PM EDT
Nautical Twilight 5:03 AM EDT 9:42 PM EDT
Astronomical Twilight 4:23 AM EDT 10:22 PM EDT
Moon 10:50 PM EDT (6/6) 8:26 AM EDT (6/6)
Length of Visible Light 15h 26m
Length of Day
14h 27m
Waning Gibbous, 93% of the Moon is Illuminated
Jun 6
Waning Gibbous
Jun 11
Last Quarter
Jun 19
New
Jun 26
First Quarter
Jul 3
Full

Hourly Weather History & Observations

Time (EDT) Temp. Dew Point Humidity Pressure Visibility Wind Dir Wind Speed Gust Speed Precip Events Conditions
12:52 AM 66.9 °F 55.0 °F 66% 29.86 in 10.0 mi ESE 15.0 mph - N/A   Overcast
1:52 AM 64.0 °F 55.0 °F 73% 29.87 in 10.0 mi East 8.1 mph - N/A   Overcast
2:52 AM 62.1 °F 57.0 °F 84% 29.88 in 3.0 mi East 6.9 mph - 0.11 in Rain Heavy Rain
3:52 AM 60.1 °F 57.9 °F 93% 29.87 in 10.0 mi East 4.6 mph - 0.08 in   Overcast
4:41 AM 60.8 °F 57.2 °F 88% 29.90 in 10.0 mi East 6.9 mph - N/A   Overcast
4:52 AM 60.1 °F 57.0 °F 90% 29.88 in 10.0 mi East 9.2 mph - N/A   Overcast
5:21 AM 60.8 °F 57.2 °F 88% 29.91 in 10.0 mi East 6.9 mph - N/A   Overcast
5:52 AM 60.1 °F 57.0 °F 90% 29.90 in 10.0 mi East 8.1 mph - N/A   Overcast
6:52 AM 60.1 °F 57.0 °F 90% 29.93 in 7.0 mi NE 12.7 mph - N/A   Overcast
7:52 AM 59.0 °F 55.9 °F 90% 29.93 in 3.0 mi ENE 9.2 mph 18.4 mph 0.01 in Rain Heavy Rain
7:55 AM 59.0 °F 55.4 °F 88% 29.94 in 2.0 mi ENE 11.5 mph - 0.04 in Rain Heavy Rain
8:25 AM 57.2 °F 55.4 °F 94% 29.96 in 6.0 mi East 12.7 mph 21.9 mph 0.19 in Rain Light Rain
8:52 AM 57.0 °F 54.0 °F 89% 29.95 in 3.0 mi East 16.1 mph - 0.30 in Rain Light Rain
8:59 AM 57.2 °F 53.6 °F 88% 29.96 in 8.0 mi East 15.0 mph - 0.00 in Rain Light Rain
9:52 AM 59.0 °F 53.1 °F 81% 29.96 in 10.0 mi East 11.5 mph 20.7 mph 0.00 in   Overcast
10:52 AM 59.0 °F 54.0 °F 83% 29.96 in 6.0 mi East 8.1 mph - 0.02 in Rain Rain
11:52 AM 61.0 °F 55.0 °F 81% 29.97 in 10.0 mi ENE 4.6 mph - 0.00 in   Overcast
12:52 PM 66.0 °F 57.0 °F 73% 29.96 in 10.0 mi Calm Calm - N/A   Overcast
1:52 PM 66.9 °F 55.9 °F 68% 29.97 in 10.0 mi East 5.8 mph - N/A   Mostly Cloudy
2:52 PM 70.0 °F 55.9 °F 61% 29.96 in 10.0 mi ENE 5.8 mph - N/A   Mostly Cloudy
3:52 PM 70.0 °F 55.0 °F 59% 29.95 in 10.0 mi Calm Calm - N/A   Mostly Cloudy
4:52 PM 69.8 °F 53.6 °F 56% 29.96 in 10.0 mi East 6.9 mph - N/A   Mostly Cloudy
5:52 PM 71.1 °F 57.0 °F 61% 29.95 in 10.0 mi Variable 6.9 mph - N/A   Mostly Cloudy
6:52 PM 70.0 °F 55.9 °F 61% 29.97 in 10.0 mi ENE 6.9 mph - N/A   Scattered Clouds
7:52 PM 68.0 °F 55.9 °F 65% 29.99 in 10.0 mi ENE 8.1 mph - N/A   Scattered Clouds
8:52 PM 66.0 °F 55.9 °F 70% 30.00 in 10.0 mi NE 5.8 mph - N/A   Scattered Clouds
9:52 PM 64.0 °F 55.9 °F 75% 30.00 in 10.0 mi NE 6.9 mph - N/A   Partly Cloudy
10:52 PM 64.0 °F 57.0 °F 78% 30.02 in 10.0 mi NE 5.8 mph - N/A   Mostly Cloudy
11:52 PM 63.0 °F 55.9 °F 78% 30.01 in 10.0 mi East 4.6 mph - N/A   Mostly Cloudy